Snowfall_Accumulation
0.9 1.0 1.3 1.2 1.3 1.4 1.7 1.7 1.8 1.9 1.9 1.7 1.6 1.8 1.5 1.1 1.1 1.1 1.2 1.4 1.3 1.1 1.3 1.1 1.0 1.0 1.2 1.2 0.8 0.9 1.1 1.5 2.2 0.8 0.4 0.3 0.2 0.3 0.4 0.3 0.3 0.1 0.1
1.2 1.2 1.4 1.1 1.2 1.4 1.4 1.7 1.9 1.8 1.7 2.0 1.8 1.8 1.7 1.5 1.4 1.6 1.2 1.2 1.5 1.5 1.4 1.2 1.3 1.4 1.4 1.6 1.2 1.4 1.3 1.3 2.0 2.0 1.0 0.8 0.6 0.5 0.6 0.6 0.4 0.3 0.2
1.3 1.4 1.5 1.4 1.3 1.2 1.3 1.7 1.0 1.1 1.2 1.3 1.5 1.8 1.8 2.0 1.8 1.5 1.5 1.3 1.5 1.4 1.7 1.6 1.7 1.7 2.0 1.7 1.4 1.5 1.4 1.4 1.8 2.5 1.9 1.1 1.0 0.7 0.9 0.8 0.5 0.4 0.2
1.6 1.5 1.5 1.4 1.3 1.3 1.0 1.0 1.1 1.0 1.1 1.4 1.5 1.8 1.9 2.1 2.4 2.1 2.1 1.9 1.7 1.6 1.9 1.8 2.1 2.3 2.6 2.5 2.6 2.5 2.9 3.1 3.1 3.1 3.0 2.6 2.3 1.6 1.4 1.6 1.3 1.1 0.9
1.4 1.4 1.4 1.3 1.1 0.9 1.1 1.1 1.0 0.9 0.9 1.1 1.7 1.8 2.0 2.2 2.4 2.9 3.1 2.9 2.3 2.2 1.8 1.8 2.0 2.4 2.6 3.1 3.2 3.5 3.7 3.9 4.3 4.5 4.3 3.7 3.0 2.9 2.1 1.8 2.0 1.6 1.5
1.4 1.3 1.2 1.1 1.1 1.0 1.2 1.3 1.4 1.0 1.1 1.4 1.9 2.0 2.0 2.2 2.5 2.7 3.7 4.0 3.3 2.6 2.4 2.5 2.3 2.5 2.7 2.3 2.4 2.5 3.4 5.6 6.6 5.9 5.1 4.4 3.0 3.0 2.4 2.7 2.9 3.2 3.1
1.6 1.4 1.5 1.4 1.7 1.7 1.6 1.7 2.0 1.9 1.7 1.8 2.0 2.1 2.3 2.1 2.1 3.1 4.0 4.3 4.0 3.4 3.6 3.5 3.2 2.7 2.6 2.1 2.2 1.9 2.7 3.0 4.0 4.6 5.1 3.7 3.0 3.0 3.8 4.7 4.7 4.4 4.0
2.1 1.8 1.8 1.8 1.9 1.8 1.9 1.8 2.0 2.0 2.6 2.3 2.1 2.5 2.4 1.9 2.2 2.8 3.7 4.7 4.6 4.4 3.6 3.3 3.2 2.8 2.7 2.6 2.9 3.1 2.2 2.0 2.1 2.4 3.1 2.7 2.6 2.8 3.9 5.7 5.5 5.0 3.5
3.1 3.0 2.7 2.6 2.4 2.4 2.4 3.2 3.7 4.2 4.5 4.4 4.3 4.2 4.3 2.9 3.3 4.0 5.1 5.3 4.4 4.1 3.0 2.7 2.2 2.2 2.2 3.2 4.2 4.0 2.6 1.9 1.6 2.0 2.2 2.6 2.8 2.9 3.5 5.3 6.8 8.2 7.2
4.0 3.7 3.5 3.4 3.7 4.2 4.3 4.7 5.4 5.7 5.7 5.9 6.0 5.5 5.5 4.7 3.7 3.5 4.0 4.7 4.5 3.5 2.9 2.6 2.4 2.8 3.3 4.5 5.4 5.2 4.5 2.6 2.3 1.9 1.7 1.5 1.7 1.8 2.3 3.6 5.8 9.2 8.9
4.1 4.1 3.6 3.5 4.0 4.3 4.4 4.2 4.7 5.0 5.1 4.9 5.2 4.8 3.8 3.0 2.3 2.7 3.5 4.8 5.5 4.9 4.2 3.2 2.7 2.8 3.8 4.7 5.4 5.4 5.3 4.5 3.8 3.4 3.2 2.6 2.4 2.3 1.9 2.1 3.0 6.5 10.4
3.8 3.8 3.7 3.6 3.9 3.9 4.1 4.3 4.3 4.5 4.6 4.4 4.1 4.0 3.8 2.7 2.6 2.9 3.5 5.2 5.5 6.5 5.4 3.5 3.3 4.0 4.5 4.5 4.6 4.5 4.2 4.5 5.0 5.2 4.9 4.2 3.7 3.5 2.6 2.4 2.9 3.2 4.4
3.7 3.7 3.8 3.5 3.8 3.8 3.9 4.4 4.7 4.6 4.5 4.4 4.2 4.4 4.6 4.2 2.9 2.7 3.5 4.1 4.8 5.3 4.4 4.0 4.3 4.7 5.1 4.5 4.5 4.3 4.1 4.5 5.5 5.9 5.6 4.5 3.3 3.1 3.1 3.4 3.7 3.5 3.2
3.9 3.9 3.8 3.8 4.1 4.1 4.4 4.7 5.2 5.6 6.0 5.6 5.4 5.1 4.7 4.5 4.3 4.1 4.1 4.5 4.6 4.8 4.3 3.8 4.5 4.7 4.6 4.4 4.7 5.0 5.0 5.4 5.4 6.1 5.2 4.3 3.5 4.1 4.6 4.7 5.5 6.0 7.2
3.7 3.9 4.0 4.1 4.3 4.6 4.8 5.0 5.8 6.2 7.0 8.7 8.2 7.2 7.3 7.0 5.3 5.7 6.9 6.9 6.9 7.1 7.1 6.8 6.5 5.9 6.3 6.0 5.6 5.3 5.5 5.4 6.1 5.9 5.8 6.6 6.4 6.4 6.0 5.7 6.7 8.2 9.7
4.4 4.5 4.2 4.5 4.4 4.5 4.8 5.5 5.0 5.6 5.8 6.1 6.6 7.6 7.9 7.5 6.7 6.8 6.9 7.0 6.9 7.5 8.6 9.1 7.5 6.5 6.0 6.4 6.5 6.8 6.1 6.6 6.8 7.2 8.0 8.1 8.5 8.7 8.3 7.1 7.9 9.8 10.4
5.1 5.2 5.1 5.1 5.2 5.5 5.2 5.3 6.2 5.7 5.2 5.1 5.6 5.9 6.8 7.1 7.3 7.2 6.9 7.2 6.9 7.1 8.9 7.8 6.8 6.5 6.5 6.9 7.1 7.7 7.9 7.3 7.7 9.0 9.6 9.4 10.1 10.5 10.6 10.5 10.0 10.8 10.6
4.8 5.0 5.6 5.6 5.8 6.0 5.9 6.0 5.7 6.1 6.5 6.6 5.8 5.5 6.0 6.4 7.0 7.3 7.1 7.7 8.1 7.1 7.2 7.0 6.8 6.5 6.9 7.1 7.7 8.5 8.2 7.8 8.6 9.7 10.1 10.1 10.9 12.0 12.7 11.9 11.0 11.4 11.8
4.9 5.3 5.8 6.1 5.8 6.1 6.3 6.7 6.7 6.5 6.6 6.8 6.7 7.1 6.9 6.9 6.4 6.8 7.1 8.2 8.6 8.2 7.2 7.0 7.2 7.3 7.7 8.3 8.6 9.1 9.6 9.8 9.7 10.5 10.8 10.7 11.7 13.0 13.2 11.6 11.8 12.1 13.2
5.1 5.5 6.0 6.2 6.1 6.2 6.5 7.2 7.4 7.4 7.1 6.8 7.0 7.9 8.4 8.6 8.8 8.5 8.0 8.2 8.5 8.4 7.4 7.5 7.8 8.1 8.6 9.2 9.3 10.0 10.4 9.8 10.3 10.9 10.9 10.9 11.4 12.9 13.0 12.2 12.7 13.7 12.8
5.2 5.5 5.7 5.9 6.2 6.4 6.9 7.2 7.3 7.5 7.5 7.4 7.4 7.7 9.2 10.3 9.5 8.6 8.7 8.5 8.3 8.6 8.8 8.6 8.7 8.6 9.0 9.3 10.0 10.2 10.3 10.1 9.8 10.9 11.0 11.3 12.1 13.3 12.2 12.8 12.8 13.0 13.9
5.8 6.2 6.2 6.7 6.7 7.3 7.8 7.7 7.8 7.5 7.2 7.0 7.1 7.1 7.5 8.1 8.1 8.1 8.2 8.2 8.0 8.5 8.9 9.4 9.3 8.5 9.0 10.3 11.4 11.9 10.9 10.0 9.5 10.5 11.8 11.8 12.2 12.9 13.1 13.6 13.9 14.6 15.2
6.3 6.5 6.6 6.7 7.1 7.5 7.6 7.5 7.3 7.3 7.3 7.0 6.8 7.1 7.3 7.4 7.2 7.7 7.8 7.7 7.6 7.8 8.0 8.4 8.8 8.3 8.1 9.0 10.2 12.4 13.0 11.4 10.0 11.4 14.0 14.3 13.9 14.3 15.1 15.2 14.5 14.5 13.6
6.7 6.9 7.1 7.2 7.2 7.2 7.4 7.2 7.3 7.4 7.3 7.4 7.3 7.1 7.2 7.2 6.9 7.2 7.4 7.6 7.9 7.8 7.8 8.0 8.4 8.0 8.0 9.2 9.0 9.8 10.5 11.8 14.0 15.7 17.4 19.8 18.8 16.7 16.2 15.4 13.8 13.2 13.2
6.5 6.8 7.0 7.4 7.6 7.8 7.6 7.6 7.3 7.2 7.5 7.6 7.4 7.2 7.2 6.8 7.1 6.8 6.9 7.3 7.4 7.5 7.4 7.4 8.0 8.1 8.1 8.6 9.0 9.0 9.4 11.2 15.1 19.9 22.4 21.8 19.0 16.2 16.0 15.3 13.9 13.6 13.6
6.4 6.7 7.2 7.3 7.6 7.7 7.8 7.9 7.7 7.6 8.0 8.1 8.3 8.1 8.1 8.0 7.7 7.5 7.6 7.9 8.2 7.7 7.6 7.2 7.4 7.9 8.3 8.6 8.5 8.7 9.5 11.0 12.2 15.0 20.5 22.4 19.6 16.3 16.0 17.1 15.4 15.0 15.1